Location: Branche des Alpilles
(43.6087°N, 4.6976°E)
Time: 10:02:32
(UTC+00:00)

NOSS 3-3 (A) - Pass Details

Date: 30 November 2020
Orbit: 818 x 1394 km, 63.4° (Epoch: 22 January)

Event Time Altitude Azimuth Distance (km) Brightness Sun altitude
Rises 18:16:50 0° 324° (NW) 3,959 7.5 -23.1°
Reaches altitude 10° 18:19:25 10° 327° (NNW) 3,076 6.9 -23.6°
Maximum altitude 18:26:54 66° 50° (NE) 1,376 4.5 -24.9°
Enters shadow 18:29:58 41° 116° (ESE) 1,821 5.0 -25.4°
